Location: Bouchavesnes-Bergen
(49.9859°N, 2.9203°E)
Time: 11:46:09
(UTC+00:00)

Cosmos 909 Rocket - Pass Details

Date: 09 March 2021
Orbit: 990 x 2089 km, 65.9° (Epoch: 12 April)

Event Time Altitude Azimuth Distance (km) Brightness Sun altitude
Exits shadow 05:14:53 - 233° (SW) 3,103 6.1 -10.4°
Reaches altitude 10° 05:15:34 10° 234° (SW) 2,848 5.9 -10.3°
Maximum altitude 05:21:57 60° 314° (NW) 1,126 4.2 -9.3°
Drops below altitude 10° 05:28:14 10° 35° (NE) 2,804 7.0 -8.3°
Sets 05:30:56 0° 39° (NE) 3,817 7.8 -7.9°
